Stündliche Wetter Barrancas

Heute, 27 Oktober, Dienstag

Zeit Temperatur Niederschläge Wind Luftdruck Luftfeuchtigkeit
00:00 +27°C° 0.1 mm 4 m/S 751 mmHg 84%
01:00 +27°C° 0.1 mm 3 m/S 750 mmHg 85%
02:00 +26°C° 0 mm 3 m/S 750 mmHg 87%
03:00 +26°C° 0 mm 3 m/S 750 mmHg 88%
04:00 +26°C° 0 mm 3 m/S 750 mmHg 88%
05:00 +26°C° 0 mm 3 m/S 750 mmHg 89%
06:00 +27°C° 0 mm 3 m/S 750 mmHg 86%
07:00 +27°C° 0 mm 4 m/S 751 mmHg 82%
08:00 +28°C° 0 mm 5 m/S 751 mmHg 79%
09:00 +30°C° 0 mm 5 m/S 752 mmHg 72%
10:00 +32°C° 0 mm 5 m/S 752 mmHg 65%
11:00 +34°C° 0 mm 6 m/S 752 mmHg 57%
12:00 +34°C° 0 mm 5 m/S 751 mmHg 54%
13:00 +35°C° 0 mm 5 m/S 750 mmHg 51%
14:00 +36°C° 0 mm 5 m/S 748 mmHg 47%
15:00 +35°C° 0 mm 5 m/S 748 mmHg 50%
16:00 +35°C° 0 mm 4 m/S 748 mmHg 53%
17:00 +34°C° 0 mm 4 m/S 747 mmHg 55%
18:00 +33°C° 0 mm 4 m/S 748 mmHg 60%
19:00 +31°C° 0 mm 3 m/S 749 mmHg 65%
20:00 +30°C° 0 mm 3 m/S 749 mmHg 70%
21:00 +29°C° 0 mm 4 m/S 749 mmHg 72%
22:00 +29°C° 0 mm 4 m/S 750 mmHg 75%
23:00 +28°C° 0 mm 5 m/S 750 mmHg 77%

Morgen, 28 Oktober, Mittwoch

Zeit Temperatur Niederschläge Wind Luftdruck Luftfeuchtigkeit
00:00 +28°C° 0 mm 4 m/S 749 mmHg 79%
01:00 +27°C° 0 mm 3 m/S 749 mmHg 80%
02:00 +27°C° 0 mm 3 m/S 749 mmHg 82%
03:00 +27°C° 0 mm 2 m/S 749 mmHg 83%
04:00 +26°C° 0 mm 2 m/S 749 mmHg 85%
05:00 +26°C° 0 mm 2 m/S 749 mmHg 86%
06:00 +27°C° 0 mm 3 m/S 749 mmHg 84%
07:00 +27°C° 0 mm 3 m/S 750 mmHg 81%
08:00 +28°C° 0 mm 4 m/S 751 mmHg 79%
09:00 +30°C° 0 mm 4 m/S 751 mmHg 72%
10:00 +32°C° 0 mm 4 m/S 751 mmHg 64%
11:00 +34°C° 0 mm 4 m/S 750 mmHg 57%
12:00 +35°C° 0 mm 4 m/S 749 mmHg 52%
13:00 +36°C° 0 mm 4 m/S 748 mmHg 47%
14:00 +37°C° 0 mm 3 m/S 747 mmHg 43%
15:00 +36°C° 0 mm 3 m/S 747 mmHg 45%
16:00 +36°C° 0 mm 4 m/S 747 mmHg 47%
17:00 +35°C° 0 mm 4 m/S 746 mmHg 49%
18:00 +34°C° 0 mm 3 m/S 747 mmHg 55%
19:00 +33°C° 0 mm 3 m/S 748 mmHg 62%
20:00 +30°C° 0 mm 3 m/S 748 mmHg 69%
21:00 +30°C° 0 mm 4 m/S 749 mmHg 73%
22:00 +29°C° 0 mm 5 m/S 749 mmHg 77%
23:00 +28°C° 0 mm 5 m/S 749 mmHg 81%

übermorgen, 29 Oktober, Donnerstag

Zeit Temperatur Niederschläge Wind Luftdruck Luftfeuchtigkeit
00:00 +28°C° 0 mm 5 m/S 749 mmHg 82%
01:00 +28°C° 0 mm 5 m/S 748 mmHg 83%
02:00 +27°C° 0 mm 5 m/S 748 mmHg 84%
03:00 +27°C° 0 mm 5 m/S 748 mmHg 85%
04:00 +27°C° 0 mm 4 m/S 748 mmHg 86%
05:00 +27°C° 0 mm 4 m/S 748 mmHg 87%
06:00 +27°C° 0 mm 4 m/S 749 mmHg 84%
07:00 +28°C° 0 mm 4 m/S 750 mmHg 81%
08:00 +29°C° 0 mm 4 m/S 750 mmHg 78%
09:00 +30°C° 0 mm 4 m/S 751 mmHg 72%
10:00 +33°C° 0 mm 4 m/S 751 mmHg 65%
11:00 +34°C° 0 mm 4 m/S 751 mmHg 59%
12:00 +35°C° 0 mm 4 m/S 750 mmHg 57%
13:00 +35°C° 0 mm 3 m/S 749 mmHg 54%
14:00 +36°C° 0 mm 3 m/S 748 mmHg 52%
15:00 +36°C° 0 mm 3 m/S 748 mmHg 53%
16:00 +36°C° 0 mm 3 m/S 747 mmHg 54%
17:00 +35°C° 0 mm 3 m/S 747 mmHg 55%
18:00 +34°C° 0 mm 3 m/S 748 mmHg 61%
19:00 +33°C° 0 mm 3 m/S 748 mmHg 66%
20:00 +32°C° 0 mm 4 m/S 749 mmHg 71%
21:00 +30°C° 0 mm 4 m/S 749 mmHg 74%
22:00 +29°C° 0 mm 5 m/S 749 mmHg 77%
23:00 +29°C° 0 mm 5 m/S 750 mmHg 79%

30 Oktober, Freitag

Zeit Temperatur Niederschläge Wind Luftdruck Luftfeuchtigkeit
00:00 +28°C° 0 mm 4 m/S 749 mmHg 81%
01:00 +28°C° 0 mm 4 m/S 749 mmHg 82%
02:00 +28°C° 0 mm 3 m/S 749 mmHg 83%
03:00 +28°C° 0 mm 3 m/S 749 mmHg 83%
04:00 +27°C° 0 mm 3 m/S 749 mmHg 84%
05:00 +27°C° 0 mm 2 m/S 750 mmHg 85%
06:00 +28°C° 0 mm 3 m/S 750 mmHg 82%
07:00 +29°C° 0 mm 4 m/S 751 mmHg 79%
08:00 +29°C° 0 mm 5 m/S 751 mmHg 76%
09:00 +32°C° 0 mm 5 m/S 751 mmHg 69%
10:00 +33°C° 0 mm 5 m/S 751 mmHg 62%
11:00 +35°C° 0 mm 5 m/S 751 mmHg 56%
12:00 +35°C° 0 mm 5 m/S 750 mmHg 53%
13:00 +36°C° 0 mm 5 m/S 749 mmHg 50%
14:00 +37°C° 0 mm 4 m/S 748 mmHg 48%
15:00 +36°C° 0 mm 4 m/S 748 mmHg 50%
16:00 +36°C° 0 mm 3 m/S 748 mmHg 53%
17:00 +35°C° 0 mm 3 m/S 748 mmHg 55%
18:00 +34°C° 0 mm 3 m/S 749 mmHg 59%
19:00 +32°C° 0 mm 2 m/S 749 mmHg 63%
20:00 +31°C° 0 mm 2 m/S 750 mmHg 67%
21:00 +30°C° 0.2 mm 3 m/S 750 mmHg 70%
22:00 +30°C° 0.2 mm 4 m/S 750 mmHg 74%
23:00 +29°C° 0.2 mm 5 m/S 750 mmHg 77%

31 Oktober, Samstag

Zeit Temperatur Niederschläge Wind Luftdruck Luftfeuchtigkeit
00:00 +28°C° 0.1 mm 4 m/S 750 mmHg 79%
01:00 +28°C° 0.1 mm 3 m/S 750 mmHg 81%
02:00 +27°C° 0.1 mm 3 m/S 750 mmHg 82%
03:00 +27°C° 0 mm 3 m/S 750 mmHg 83%
04:00 +27°C° 0 mm 3 m/S 750 mmHg 84%
05:00 +27°C° 0 mm 3 m/S 750 mmHg 86%
06:00 +28°C° 0 mm 3 m/S 751 mmHg 83%
07:00 +28°C° 0 mm 4 m/S 751 mmHg 81%
08:00 +29°C° 0 mm 4 m/S 752 mmHg 78%
09:00 +32°C° 0.1 mm 4 m/S 752 mmHg 71%
10:00 +33°C° 0.1 mm 5 m/S 752 mmHg 64%
11:00 +35°C° 0.1 mm 5 m/S 751 mmHg 57%
12:00 +35°C° 0.3 mm 5 m/S 750 mmHg 55%
13:00 +36°C° 0.3 mm 4 m/S 749 mmHg 54%
14:00 +36°C° 0.3 mm 4 m/S 748 mmHg 52%
15:00 +35°C° 1.1 mm 4 m/S 748 mmHg 55%
16:00 +35°C° 1.1 mm 4 m/S 748 mmHg 59%
17:00 +34°C° 1.1 mm 3 m/S 748 mmHg 62%
18:00 +33°C° 0.4 mm 3 m/S 749 mmHg 66%
19:00 +31°C° 0.4 mm 3 m/S 749 mmHg 70%
20:00 +30°C° 0.4 mm 3 m/S 750 mmHg 74%
21:00 +29°C° 0.2 mm 3 m/S 750 mmHg 77%
22:00 +29°C° 0.2 mm 4 m/S 750 mmHg 79%
23:00 +28°C° 0.2 mm 4 m/S 751 mmHg 81%

1 November, Sonntag

Zeit Temperatur Niederschläge Wind Luftdruck Luftfeuchtigkeit
00:00 +28°C° 0 mm 4 m/S 750 mmHg 82%
01:00 +27°C° 0 mm 3 m/S 750 mmHg 83%
02:00 +27°C° 0 mm 3 m/S 750 mmHg 84%
03:00 +27°C° 0 mm 3 m/S 750 mmHg 85%
04:00 +27°C° 0 mm 3 m/S 750 mmHg 86%
05:00 +26°C° 0 mm 2 m/S 750 mmHg 87%
06:00 +27°C° 0 mm 3 m/S 751 mmHg 83%
07:00 +28°C° 0 mm 4 m/S 751 mmHg 80%
08:00 +29°C° 0 mm 4 m/S 752 mmHg 77%
09:00 +30°C° 0 mm 5 m/S 752 mmHg 71%
10:00 +32°C° 0 mm 5 m/S 752 mmHg 65%
11:00 +33°C° 0 mm 5 m/S 752 mmHg 59%
12:00 +34°C° 0.1 mm 5 m/S 751 mmHg 59%
13:00 +34°C° 0.1 mm 4 m/S 750 mmHg 58%
14:00 +34°C° 0.1 mm 4 m/S 749 mmHg 58%
15:00 +34°C° 0.2 mm 3 m/S 748 mmHg 58%
16:00 +34°C° 0.2 mm 3 m/S 748 mmHg 58%
17:00 +34°C° 0.2 mm 2 m/S 748 mmHg 59%
18:00 +31°C° 0.8 mm 2 m/S 749 mmHg 65%
19:00 +30°C° 0.8 mm 2 m/S 749 mmHg 72%
20:00 +29°C° 0.8 mm 1 m/S 750 mmHg 79%
21:00 +28°C° 2.8 mm 2 m/S 750 mmHg 81%
22:00 +28°C° 2.8 mm 2 m/S 750 mmHg 83%
23:00 +28°C° 2.8 mm 2 m/S 751 mmHg 86%
Mehr zeigen